GW3853 Weather Reports


time (UTC)temp
C
wind
direction
speed
KPH
gust
KPH
rain 1hr
cm
rain 24hr
cm
rain mn
cm
humidity
%
barometer
mb
20260506040016 13 269 0.0 0.0 0.00 0.08 0.00 95 1007.5
20260506034529 13 265 0.0 0.0 0.00 0.08 0.08 94 1007.4
20260506033024 13 260 0.0 0.0 0.00 0.08 0.08 95 1007.1
20260506031510 13 226 0.0 0.0 0.00 0.08 0.08 95 1007.2
20260506021508 14 219 0.0 3.2 0.00 0.08 0.08 94 1007.8
20260506020013 14 335 0.0 0.0 0.00 0.08 0.08 94 1007.8
20260506014520 14 335 0.0 3.2 0.00 0.08 0.08 94 1007.7
20260506011519 14 354 0.0 0.0 0.00 0.08 0.08 93 1007.2
20260506010012 15 354 0.0 3.2 0.00 0.08 0.08 93 1006.9
20260506004532 15 281 0.0 3.2 0.00 0.08 0.08 93 1006.8
20260506003021 15 340 0.0 3.2 0.00 0.08 0.08 93 1006.6
20260505234513 15 1 0.0 3.2 0.08 0.08 0.08 91 1006.0
20260505233027 16 1 0.0 3.2 0.08 0.08 0.08 90 1006.4
20260505224511 18 90 1.6 6.4 0.00 0.00 0.00 74 1006.1
20260505223020 20 307 3.2 25.7 0.00 0.00 0.00 63 1005.7
20260505221523 22 1 4.8 8.0 0.00 0.00 0.00 50 1005.1
20260505213021 23 198 3.2 8.0 0.00 0.00 0.00 47 1002.7
20260505201518 24 26 4.8 17.7 0.00 0.00 0.00 44 1002.6
20260505193034 24 108 3.2 11.3 0.00 0.00 0.00 45 1002.9
20260505191522 25 162 4.8 14.5 0.00 0.00 0.00 44 1002.8
20260505190021 25 199 1.6 14.5 0.00 0.00 0.00 44 1003.2
20260505184522 25 98 3.2 14.5 0.00 0.00 0.00 42 1003.4
20260505183035 26 25 3.2 12.9 0.00 0.00 0.00 37 1003.5
20260505181503 26 157 4.8 11.3 0.00 0.00 0.00 37 1003.8
20260505173006 26 200 1.6 11.3 0.00 0.00 0.00 39 1004.3
20260505171511 25 33 4.8 16.1 0.00 0.00 0.00 40 1004.5
20260505170003 25 232 1.6 9.7 0.00 0.03 0.00 39 1004.9
20260505163008 24 93 4.8 19.3 0.00 0.08 0.00 41 1005.4
20260505124516 15 207 3.2 6.4 0.00 0.10 0.00 1007.3
20260505111521 -17 0.0 0.0 0.00 0.10 0.00 1007.6
20260505101523 -17 0.0 0.0 0.00 0.10 0.00 1007.5
20260505100024 8 0.0 3.2 0.00 0.10 0.00 1007.4
20260505094524 8 237 1.6 3.2 0.00 0.10 0.00 82 1007.4
20260505093008 7 249 1.6 3.2 0.00 0.10 0.00 83 1007.4
20260505091513 7 218 0.0 3.2 0.00 0.10 0.00 83 1007.4
20260505090019 8 248 1.6 3.2 0.00 0.10 0.00 82 1007.5
20260505084540 7 217 1.6 3.2 0.00 0.10 0.00 83 1007.6
20260505083027 8 229 0.0 3.2 0.00 0.10 0.00 83 1007.7
20260505081516 7 228 1.6 3.2 0.00 0.10 0.00 83 1007.8
20260505080015 8 228 0.0 3.2 0.00 0.10 0.00 81 1007.7
20260505074520 8 228 0.0 3.2 0.00 0.10 0.00 81 1007.7
20260505073025 7 228 0.0 3.2 0.00 0.10 0.00 81 1007.8
20260505071529 7 228 0.0 1.6 0.00 0.10 0.00 81 1007.8
20260505070012 7 228 0.0 3.2 0.00 0.10 0.00 81 1007.8
20260505064520 8 225 1.6 3.2 0.00 0.10 0.00 81 1007.7
20260505063029 7 225 0.0 3.2 0.00 0.10 0.00 81 1007.7
20260505061510 7 225 0.0 3.2 0.00 0.10 0.00 82 1007.7
20260505060011 7 237 1.6 3.2 0.00 0.10 0.00 83 1007.7